[[{"header":{"parameterUnit":"m.s-1","parameterCategory":1,"la1":30.2991,"la2":30.254,"lo1":-89.0895,"lo2":-89.0444,"dy":0.0017,"dx":0.0017,"nx":28,"ny":28,"refTime":"2026-01-09T09:00:00:Z","depth":0,"parameterNumber":2,"parameterNumberName":"U-component_of_WINDS"},"data":[0,0,0,0,0,0,0,0,0,0,0,0,0,0,0,0,0,0,0,0,0,0,0,0,0,0,0,0,0,0,0,0,0,0,0,0,0,0,0,0,0,0,0,0,0,0,0,0,0,0,0,0,0,0,0,0,0,0,-4.0162,-4.0164,0,-4.029,-4.0292,-4.0293,-4.0298,-4.0296,-4.0295,-4.0293,-4.0423,-4.0428,-4.0433,0,0,0,0,0,0,0,0,0,0,0,0,0,-3.9922,-3.9926,-4.0162,-4.0164,-4.0165,-4.029,-4.0292,-4.0294,-4.0298,-4.0296,-4.0294,-4.0292,-4.0422,-4.0428,-4.0434,0,0,0,0,0,0,0,0,0,0,0,0,0,-4.0036,-3.9928,-4.0162,-4.0183,-4.0186,-4.029,-4.0292,-4.0294,-4.0298,-4.0296,-4.0294,-4.0291,-4.042,-4.0427,-4.0434,-4.0526,0,0,-4.0457,-4.046,0,0,0,0,0,0,0,0,-4.0029,-4.0044,-4.0178,-4.0181,-4.0185,-4.0276,-4.0255,-4.0372,-4.0299,-4.0255,-4.0293,-4.029,-4.0376,-4.0387,-4.0416,-4.0532,-4.0538,-4.0458,-4.0462,-4.0465,-4.0467,0,0,0,0,0,0,0,-4.0021,-4.0039,-4.0213,-4.018,-4.0184,-4.0186,-4.0199,-4.0277,-4.0327,-4.0259,-4.026,-4.0275,-4.0378,-4.0409,-4.0419,-4.054,-4.0457,-4.0464,-4.0468,-4.0471,-4.0739,-4.0741,0,0,0,0,0,0,-4.0009,-4.0032,-4.0209,-4.0217,-4.01,-4.0192,-4.0207,-4.0249,-4.0326,-4.0336,-4.0277,-4.0275,-4.0397,-4.041,-4.0424,-4.0536,-4.0465,-4.0472,-4.0476,-4.0736,-4.0739,-4.0742,0,0,0,0,0,0,-4.0004,-4.0025,-4.0204,-4.0125,-4.0148,-4.0198,-4.0245,-4.0253,-4.0284,-4.034,-4.0349,-4.0299,-4.0396,-4.0413,-4.0501,-4.0541,-4.0475,-4.0482,-4.0733,-4.0737,-4.0741,-4.0762,0,0,0,0,0,0,-3.9997,-4.0023,-4.0058,-4.0126,-4.0152,-4.0278,-4.0248,-4.0257,-4.0297,-4.0295,-4.0363,-4.0372,-4.0396,-4.049,-4.0508,-4.055,-4.0488,-4.073,-4.0735,-4.074,-4.0758,-4.0766,-4.0773,0,0,0,0,0,-3.9989,-4.0059,-4.006,-4.0081,-4.0197,-4.0281,-4.0296,-4.0321,-4.03,-4.0336,-4.0372,-4.037,-4.0534,-4.0499,-4.052,-4.0564,-4.0727,-4.0733,-4.0739,-4.0754,-4.0765,-4.0773,0,0,0,0,0,0,-3.9994,-4.0068,-4.007,-4.0164,-4.0216,-4.0281,-4.0327,-4.0331,-4.039,-4.0386,-4.0415,-4.0431,-4.0517,-4.055,-4.0509,-4.0657,-4.0628,-4.0639,-4.0633,-4.0643,-4.065,-4.064,-4.0494,0,0,0,0,0,-4.0006,-4.0068,-4.0129,-4.0206,-4.0232,-4.0275,-4.0313,-4.0328,-4.0383,-4.0405,-4.0448,-4.0501,-4.0565,-4.0606,-4.0668,-4.0764,-4.0778,-4.0804,-4.0812,-4.0818,-4.0826,-4.088,-4.0892,-4.0762,-4.0762,-4.0762,0,0,-4.0031,-4.0079,-4.0116,-4.0209,-4.0251,-4.0314,-4.0294,-4.0362,-4.0409,-4.0416,-4.05,-4.0534,-4.0596,-4.0688,-4.0731,-4.0718,-4.0866,-4.0826,-4.083,-4.0835,-4.0887,-4.0899,-4.091,-4.0766,-4.0766,-4.0765,0,0,-4.011,-4.0153,-4.0221,-4.0265,-4.0329,-4.0358,-4.0375,-4.044,-4.0463,-4.0549,-4.0555,-4.0613,-4.0721,-4.0765,-4.0802,-4.09,-4.09,-4.0919,-4.0959,-4.101,-4.1021,-4.103,-4.1064,-4.1076,-4.0928,-4.0928,-4.0928,0,-4.0133,-4.0229,-4.0256,-4.0325,-4.0365,-4.0375,-4.0445,-4.0486,-4.0567,-4.0595,-4.058,-4.0717,-4.076,-4.0862,-4.0886,-4.0916,-4.0936,-4.091,-4.1017,-4.1027,-4.1035,-4.1068,-4.1081,-4.0929,-4.0929,-4.0929,-4.0929,0,-4.0254,-4.0321,-4.0369,-4.0447,-4.0494,-4.0562,-4.0601,-4.0644,-4.0657,-4.0687,-4.0775,-4.0827,-4.0899,-4.0925,-4.0938,-4.1031,-4.102,-4.1011,-4.0982,-4.1049,-4.108,-4.1093,-4.0932,-4.0931,-4.0931,-4.093,0,0,-4.0336,-4.0431,-4.0448,-4.0484,-4.0558,-4.061,-4.068,-4.0751,-4.0788,-4.0845,-4.0904,-4.0997,-4.0989,-4.1031,-4.1049,-4.1094,-4.1168,-4.108,-4.1081,-4.1093,-4.1273,-4.1279,-4.1293,-4.117,-4.1173,-4.1175,-4.1268,0,-4.0421,-4.0546,-4.0574,-4.0681,-4.0743,-4.0755,-4.0816,-4.0868,-4.0899,-4.0956,-4.099,-4.1056,-4.1041,-4.1066,-4.1112,-4.1149,-4.1205,-4.1144,-4.1225,-4.1228,-4.1207,-4.1309,-4.1315,-4.14,-4.128,-4.1283,-4.1284,0,-4.0537,-4.0597,-4.071,-4.0776,-4.0803,-4.0858,-4.0926,-4.0981,-4.1041,-4.106,-4.1108,-4.1121,-4.1195,-4.1164,-4.1266,-4.1224,-4.126,-4.1284,-4.1288,-4.1294,-4.1258,-4.1317,-4.1428,-4.144,-4.1304,-4.1302,-4.1301,0,-4.0584,-4.0694,-4.0776,-4.0806,-4.0886,-4.0924,-4.0959,-4.1016,-4.1058,-4.1118,-4.1145,-4.1213,-4.125,-4.1303,-4.1335,-4.1309,-4.1434,-4.1406,-4.1452,-4.1451,-4.1475,-4.1473,-4.1591,-4.1502,-4.1501,-4.1501,-4.1501,0,-4.0676,-4.0744,-4.0798,-4.0848,-4.0926,-4.0958,-4.1034,-4.1069,-4.112,-4.1178,-4.1193,-4.1247,-4.1286,-4.1346,-4.1372,-4.1452,-4.1469,-4.1486,-4.1492,-4.1484,-4.1482,-4.1506,-4.15,-4.1504,-4.1504,-4.1503,-4.1502,0,-4.074,-4.0779,-4.0869,-4.0938,-4.0957,-4.1011,-4.107,-4.1119,-4.1152,-4.1224,-4.1243,-4.1294,-4.1365,-4.1402,-4.1491,-4.1508,-4.1598,-4.1602,-4.1578,-4.158,-4.1623,-4.1618,-4.1759,-4.1779,-4.1678,-4.1679,-4.168,0,-4.0795,-4.0848,-4.0923,-4.0963,-4.0999,-4.1062,-4.1105,-4.114,-4.1184,-4.1257,-4.1298,-4.137,-4.1429,-4.1542,-4.1586,-4.1655,-4.1659,-4.1704,-4.1669,-4.1659,-4.1658,-4.1653,-4.1659,-4.1709,-4.171,-4.1711,-4.1711,0,-4.0888,-4.0905,-4.0966,-4.1035,-4.1086,-4.1141,-4.1196,-4.1228,-4.1272,-4.1321,-4.1394,-4.144,-4.1531,-4.1602,-4.1674,-4.171,-4.1718,-4.1722,-4.1736,-4.1727,-4.1711,-4.1719,-4.1593,-4.1718,-4.1718,-4.1717,-4.1717,-4.1716,-4.0949,-4.0996,-4.1057,-4.1125,-4.117,-4.1222,-4.1272,-4.1311,-4.1372,-4.1449,-4.1467,-4.1543,-4.1603,-4.1701,-4.174,-4.18,-4.1791,-4.1812,-4.1817,-4.1821,-4.1822,-4.1703,-4.1814,-4.1814,-4.1814,-4.1813,-4.1813,0,-4.1041,-4.1081,-4.1143,-4.122,-4.1274,-4.1278,-4.134,-4.1384,-4.1452,-4.1507,-4.1565,-4.165,-4.1719,-4.177,-4.1842,-4.188,-4.1886,-4.1898,-4.1894,-4.1903,-4.1826,-4.1807,-4.1892,-4.1892,-4.1892,-4.1892,-4.1892,-4.1892,-4.1095,-4.1176,-4.1201,-4.1305,-4.1345,-4.142,-4.1455,-4.1503,-4.1547,-4.1641,-4.1699,-4.1732,-4.1786,-4.1862,-4.1926,-4.1939,-4.1964,-4.1976,-4.1989,-4.1916,-4.1908,-4.19,-4.1881,-4.1981,-4.1981,-4.206,-4.2061,-4.2061]},{"header":{"parameterUnit":"m.s-1","parameterCategory":1,"la1":30.2991,"la2":30.254,"lo1":-89.0895,"lo2":-89.0444,"dy":0.0017,"dx":0.0017,"nx":28,"ny":28,"refTime":"2026-01-09T09:00:00:Z","depth":0,"parameterNumber":3,"parameterNumberName":"V-component_of_WINDS"},"data":[0,0,0,0,0,0,0,0,0,0,0,0,0,0,0,0,0,0,0,0,0,0,0,0,0,0,0,0,0,0,0,0,0,0,0,0,0,0,0,0,0,0,0,0,0,0,0,0,0,0,0,0,0,0,0,0,0,0,3.4544,3.4545,0,3.4628,3.4628,3.4629,3.4641,3.464,3.4639,3.4638,3.4721,3.4724,3.4727,0,0,0,0,0,0,0,0,0,0,0,0,0,3.4394,3.4397,3.4544,3.4545,3.4546,3.4627,3.4629,3.463,3.4641,3.464,3.4639,3.4638,3.472,3.4724,3.4727,0,0,0,0,0,0,0,0,0,0,0,0,0,3.4466,3.4398,3.4544,3.4562,3.4564,3.4627,3.4629,3.463,3.4641,3.464,3.4639,3.4638,3.4719,3.4723,3.4727,3.4778,0,0,3.4741,3.4743,0,0,0,0,0,0,0,0,3.4462,3.4472,3.4558,3.456,3.4563,3.4623,3.4606,3.4679,3.4641,3.4612,3.4638,3.4637,3.4689,3.4696,3.4714,3.4782,3.4785,3.4741,3.4744,3.4746,3.4747,0,0,0,0,0,0,0,3.4457,3.4468,3.4577,3.4559,3.4562,3.4565,3.4574,3.462,3.4656,3.4614,3.4615,3.4625,3.469,3.471,3.4716,3.4786,3.4741,3.4745,3.4748,3.4749,3.4904,3.4905,0,0,0,0,0,0,3.4449,3.4464,3.4574,3.4579,3.4509,3.4569,3.4579,3.4605,3.4655,3.4662,3.4626,3.4625,3.4703,3.4711,3.4719,3.4784,3.4746,3.475,3.4752,3.4903,3.4904,3.4906,0,0,0,0,0,0,3.4446,3.4459,3.4571,3.4522,3.4537,3.4573,3.4602,3.4607,3.4626,3.4664,3.4671,3.4639,3.4702,3.4713,3.4764,3.4787,3.4752,3.4756,3.4901,3.4903,3.4905,3.4913,0,0,0,0,0,0,3.4442,3.4458,3.4477,3.4523,3.4539,3.4615,3.4603,3.4609,3.4634,3.4634,3.4678,3.4685,3.4702,3.4758,3.4769,3.4792,3.4759,3.4899,3.4902,3.4904,3.4911,3.4915,3.4919,0,0,0,0,0,3.4436,3.4474,3.4478,3.4491,3.4564,3.4616,3.4626,3.4646,3.4636,3.4656,3.4681,3.4683,3.4783,3.4763,3.4775,3.4801,3.4898,3.4901,3.4904,3.4909,3.4914,3.4919,0,0,0,0,0,0,3.4428,3.448,3.4485,3.4539,3.4573,3.4618,3.4644,3.465,3.4687,3.4685,3.4708,3.4718,3.4769,3.479,3.4767,3.4854,3.4839,3.4845,3.4839,3.4844,3.4848,3.4842,3.4763,0,0,0,0,0,3.4433,3.4472,3.4515,3.4558,3.4576,3.4607,3.463,3.4643,3.4679,3.4693,3.4722,3.4756,3.4796,3.4821,3.4859,3.4914,3.4925,3.4938,3.4942,3.4945,3.495,3.4984,3.4991,3.4917,3.4917,3.4917,0,0,3.4443,3.4476,3.4499,3.4558,3.4586,3.4626,3.4619,3.466,3.469,3.4699,3.4751,3.4773,3.4813,3.4868,3.4893,3.4887,3.4974,3.4949,3.4951,3.4955,3.4989,3.4996,3.5002,3.4919,3.4919,3.4918,0,0,3.4482,3.451,3.4551,3.458,3.4624,3.4645,3.4655,3.47,3.4716,3.4768,3.4777,3.4813,3.4879,3.4909,3.4932,3.4986,3.4991,3.4998,3.5019,3.5052,3.5058,3.5064,3.5086,3.5093,3.5003,3.5003,3.5003,0,3.4488,3.4549,3.4571,3.4614,3.464,3.4653,3.4695,3.4722,3.4775,3.4794,3.4786,3.4873,3.49,3.4964,3.4977,3.4995,3.5009,3.4993,3.5056,3.5061,3.5067,3.5088,3.5096,3.5004,3.5003,3.5003,3.5003,0,3.4556,3.4598,3.4626,3.468,3.471,3.4752,3.4781,3.4809,3.482,3.4842,3.4897,3.4931,3.4978,3.4994,3.5004,3.506,3.5055,3.5051,3.5037,3.5074,3.5095,3.5103,3.5005,3.5004,3.5004,3.5004,0,0,3.459,3.4659,3.4669,3.4695,3.4746,3.4779,3.4823,3.487,3.4895,3.4931,3.497,3.5028,3.5026,3.5053,3.5067,3.5096,3.514,3.5089,3.509,3.5099,3.5208,3.5211,3.522,3.5143,3.5145,3.5146,3.5205,0,3.4637,3.4716,3.4739,3.4806,3.4847,3.4861,3.49,3.4935,3.4958,3.4996,3.502,3.5063,3.5055,3.5072,3.5102,3.5129,3.5163,3.5124,3.5181,3.5182,3.5172,3.5231,3.5234,3.5288,3.5213,3.5214,3.5215,0,3.4701,3.4742,3.4814,3.4863,3.4881,3.4915,3.4963,3.4999,3.504,3.5055,3.5087,3.5099,3.5147,3.513,3.5197,3.517,3.5195,3.5212,3.5214,3.5221,3.5202,3.5241,3.5305,3.5314,3.5227,3.5226,3.5226,0,3.4722,3.4795,3.4849,3.4871,3.4928,3.4953,3.4978,3.5018,3.5047,3.5088,3.5107,3.5153,3.5178,3.5213,3.5238,3.5223,3.5304,3.5288,3.5319,3.5318,3.5336,3.5334,3.5406,3.5348,3.5348,3.5348,3.5348,0,3.4773,3.4817,3.486,3.4893,3.4944,3.497,3.5019,3.5045,3.5081,3.512,3.5134,3.517,3.52,3.5241,3.526,3.5314,3.5325,3.5339,3.5344,3.5339,3.5337,3.5356,3.5353,3.535,3.535,3.5349,3.5349,0,3.4805,3.4835,3.4895,3.4946,3.496,3.4996,3.504,3.5073,3.5097,3.5146,3.5159,3.5197,3.5246,3.5275,3.5335,3.5348,3.5409,3.5411,3.5396,3.5398,3.5428,3.5426,3.5516,3.553,3.5461,3.5461,3.5462,0,3.4836,3.4871,3.4927,3.4955,3.4981,3.5025,3.5055,3.5083,3.5114,3.5166,3.5193,3.5243,3.5285,3.5363,3.5396,3.5443,3.5448,3.5476,3.5455,3.545,3.5451,3.545,3.5455,3.548,3.5481,3.5481,3.5482,0,3.4888,3.4903,3.4946,3.4996,3.5032,3.5072,3.5112,3.5134,3.5168,3.5203,3.5254,3.5287,3.5351,3.5401,3.5452,3.5478,3.5487,3.5488,3.5498,3.5494,3.5485,3.5493,3.5408,3.5486,3.5486,3.5485,3.5485,3.5485,3.4923,3.4956,3.5002,3.505,3.5084,3.5122,3.5157,3.5187,3.523,3.5286,3.5299,3.5354,3.5397,3.5467,3.5495,3.5538,3.5534,3.5547,3.5551,3.5555,3.5557,3.5477,3.5547,3.5547,3.5547,3.5547,3.5547,0,3.4978,3.5009,3.5054,3.5111,3.515,3.5156,3.5201,3.5233,3.5282,3.5322,3.5364,3.5425,3.5474,3.5513,3.5564,3.5592,3.5597,3.5604,3.5603,3.561,3.5557,3.5545,3.5599,3.5599,3.5599,3.5599,3.5599,3.5599,3.5012,3.507,3.509,3.5165,3.5195,3.525,3.5276,3.5311,3.5345,3.5412,3.5454,3.5479,3.552,3.5575,3.5622,3.5632,3.5651,3.5658,3.5669,3.5619,3.5613,3.5608,3.5596,3.5661,3.5661,3.5719,3.5719,3.5719]}]]